This demonstration page uses our WeatherBlox Daily Observations layout. Learn more.

38.88101, -77.10428

Hourly Observations for August 23, 2015

Temp ( °F °C ) Dew Point ( °F °C ) Humidity (%) Winds ( mph kmh ) Pressure ( in mb ) Visibility ( mi km ) Precip ( " mm )
12:52 am 00:52 Mostly Clear 70 21.1 55 12.8 59 59 NNW 6 9 30.06 1018 10 16.0934 0 0
1:52 am 01:52 Clear 69 20.6 55 12.8 61 61 NNW 6 9 30.06 1018 10 16.0934 0 0
2:52 am 02:52 Clear 67 19.4 55 12.8 66 66 NNW 7 11 30.05 1018 10 16.0934 0 0
3:52 am 03:52 Clear 66 18.9 56 13.3 70 70 N 7 11 30.05 1018 10 16.0934 0 0
4:52 am 04:52 Mostly Clear 65 18.3 57 13.9 76 76 N 6 9 30.06 1018 10 16.0934 0 0
5:52 am 05:52 Mostly Clear 67 19.4 56 13.3 68 68 NW 3 6 30.05 1018 10 16.0934 0 0
6:52 am 06:52 Mostly Cloudy 65 18.3 56 13.3 73 73 N 5 7 30.05 1018 10 16.0934 0 0
7:52 am 07:52 Mostly Cloudy 68 20 57 13.9 68 68 N 5 7 30.05 1018 10 16.0934 0 0
8:52 am 08:52 Mostly Cloudy 71 21.7 59 15 66 66 Calm 30.04 1017 10 16.0934 0 0
9:52 am 09:52 Mostly Cloudy 76 24.4 57 13.9 52 52 Calm 30.05 1018 10 16.0934 0 0
10:52 am 10:52 Mostly Cloudy 77 25 55 12.8 47 47 E 3 6 30.04 1017 10 16.0934 0 0
11:52 am 11:52 Mostly Cloudy 80 26.7 53 11.7 39 39 Calm 30.02 1017 10 16.0934 0 0
12:52 pm 12:52 Mostly Cloudy 81 27.2 54 12.2 39 39 Calm 30.01 1016 10 16.0934 0 0
1:52 pm 13:52 Mostly Cloudy 83 28.3 56 13.3 40 40 ENE 3 6 29.99 1016 10 16.0934 0 0
2:52 pm 14:52 Mostly Cloudy 84 28.9 57 13.9 40 40 SE 5 7 29.97 1015 10 16.0934 0 0
3:52 pm 15:52 Partly Cloudy 84 28.9 59 15 43 43 SSE 7 11 29.96 1014 10 16.0934 0 0
4:52 pm 16:52 Partly Cloudy 85 29.4 60 15.6 43 43 S 9 15 29.94 1014 10 16.0934 0 0
5:52 pm 17:52 Partly Cloudy 84 28.9 59 15 43 43 S 10 17 29.92 1013 10 16.0934 0 0
6:52 pm 18:52 Mostly Sunny 82 27.8 60 15.6 47 47 S 7 11 29.92 1013 10 16.0934 0 0
7:52 pm 19:52 Partly Cloudy 80 26.7 60 15.6 51 51 S 3 6 29.92 1013 10 16.0934 0 0
10:52 pm 22:52 Mostly Cloudy 76 24.4 62 16.7 62 62 S 7 11 29.95 1014 10 16.0934 0 0
11:52 pm 23:52 Mostly Cloudy 75 23.9 63 17.2 66 66 S 7 11 29.93 1014 10 16.0934 0 0

Powered by AerisWeather